Volver al catálogo

STARLINK-32795

ActivoComunicacionesVLEO
NORAD 63042·PAYLOAD·🇺🇸 United States

Lanzado Feb 18, 2025 desde Cape Canaveral Space Force Station

Loading…

Próximos Pases (próximas 24 horas)

TLE

ActualizadoSource: CelesTrak SupGP

Época: Sep 14, 2026, 23:01 UTC

1 63042C 25034P   26257.95951389  .00016346  00000+0  48302-3 0  2576
2 63042  53.1581  95.3780 0001315  82.1288 353.1593 15.34377401    16

Sigue STARLINK-32795 en tiempo real con AllMySat

Download on the App Store